Wind_Speed
5 5 4 4 4 4 4 3 2 2 2 2 2 2 2 2 2 2 2 2 3 3 4 4 5 6 7 7 8 8 9 9 10 10 11 11 11 11 12 13 14 14 13
5 5 4 4 4 4 3 2 2 2 3 3 2 2 2 2 2 3 3 3 3 4 5 5 6 7 8 8 8 8 9 9 10 10 10 11 11 11 12 14 14 13 14
5 3 3 3 3 3 2 2 3 3 3 3 3 2 3 3 3 4 4 4 4 5 6 6 7 8 8 8 8 9 9 9 9 10 10 11 11 12 13 13 14 14 14
5 4 3 2 2 2 2 2 3 3 3 3 3 4 4 4 5 5 5 5 6 6 6 7 7 7 8 8 9 9 9 10 10 11 11 12 13 13 14 14 14 14 15
5 5 4 4 3 3 3 2 2 3 3 4 5 5 5 6 6 7 7 7 7 7 7 7 8 9 9 10 10 10 10 11 11 12 13 13 14 14 14 14 14 14 15
5 4 4 4 4 3 3 3 3 3 4 5 6 7 7 7 7 8 8 9 9 8 9 9 9 10 11 11 11 12 12 13 13 13 14 13 13 14 14 14 14 14 15
5 4 5 5 4 3 3 3 4 4 5 6 7 7 8 8 8 8 9 9 10 10 10 10 10 11 11 12 12 12 13 14 14 14 14 14 14 14 15 15 15 16 16
5 5 5 5 5 4 4 5 5 6 6 7 7 8 8 8 8 9 9 10 10 11 11 11 11 11 12 12 13 13 14 14 15 15 15 15 15 16 16 16 15 16 16
5 5 5 5 5 5 5 6 6 6 7 8 8 9 9 9 9 9 10 10 11 12 12 13 13 13 13 13 14 14 15 15 15 15 16 16 16 16 16 16 16 15 15
4 4 5 5 5 5 6 6 7 7 8 8 9 9 10 9 9 10 10 11 11 12 12 13 13 14 14 15 15 15 16 16 16 16 15 16 16 17 17 17 16 16 16
5 5 5 6 6 6 7 7 8 8 9 9 9 10 10 10 10 11 11 11 12 13 13 14 14 15 15 16 16 16 16 17 17 17 17 17 18 18 18 17 17 17 18
6 6 6 7 7 7 8 9 9 10 10 11 11 11 11 11 11 12 12 12 13 14 15 15 15 16 17 17 17 17 17 17 18 18 18 19 19 19 19 19 19 19 19
7 7 7 8 9 9 9 10 11 11 11 11 11 12 13 13 13 13 13 14 14 15 15 16 16 17 17 17 17 17 18 18 18 19 19 19 20 20 20 20 20 21 21
8 8 9 9 10 11 11 11 12 12 12 13 13 13 14 14 14 15 15 15 15 16 16 17 18 19 19 18 18 18 18 19 19 19 19 19 20 20 21 21 21 22 22
9 10 10 10 11 12 12 13 13 13 13 14 15 15 15 15 15 16 16 16 17 17 17 18 18 18 19 19 19 19 19 20 20 20 20 20 21 21 21 21 22 22 22
10 11 12 12 13 14 14 15 14 15 15 16 16 16 16 16 16 16 17 18 18 19 19 20 19 19 19 19 20 20 20 20 20 21 22 22 22 22 22 22 23 23 23
12 12 13 14 14 15 16 16 16 16 16 16 16 17 17 17 17 17 18 19 19 20 20 20 21 20 20 20 20 21 21 21 21 22 22 22 22 23 23 23 24 24 24
13 14 15 16 16 17 17 18 18 18 18 18 18 18 18 18 18 19 19 20 20 20 20 21 21 22 22 22 21 21 22 21 22 22 22 22 22 23 23 23 24 25 25
16 17 17 17 18 19 19 19 19 19 19 19 19 19 19 19 20 20 20 21 21 21 21 22 22 22 22 22 22 22 22 22 23 23 22 22 22 22 23 23 24 24 25
18 19 19 20 20 20 21 20 20 20 20 20 19 20 21 21 21 21 21 21 22 22 22 22 22 22 22 22 23 22 23 23 23 22 22 22 22 22 23 24 25 25 25
20 21 21 21 22 22 22 22 22 21 21 21 21 21 21 22 22 22 22 22 23 23 23 23 23 23 23 23 23 23 23 24 24 23 22 23 23 23 24 25 25 25 25
22 22 22 23 23 24 24 23 23 22 22 22 22 22 23 23 23 23 23 23 24 24 24 24 24 24 23 23 23 23 24 24 24 24 24 23 23 24 25 25 25 26 26
23 23 23 24 24 24 25 24 24 24 24 23 24 24 23 23 24 24 24 24 24 25 25 25 25 24 24 24 24 24 24 25 24 24 24 24 24 24 25 25 24 24 24
24 24 25 25 25 25 25 25 26 25 25 25 25 25 25 25 25 24 24 25 25 25 25 25 25 24 24 24 25 25 25 25 25 26 26 25 25 25 25 24 24 24 24
26 26 26 26 26 25 26 26 26 26 26 26 26 26 26 26 25 25 26 26 26 26 26 25 25 25 25 25 26 26 26 26 26 26 26 26 25 25 25 25 24 24 24
28 27 27 27 26 26 27 27 27 28 28 28 28 28 27 27 27 27 27 26 27 26 26 26 26 26 26 26 26 26 26 26 26 25 25 26 26 26 25 25 25 25 25
Wind_Direction
96 93 95 105 109 115 122 124 102 62 47 44 49 44 42 37 24 349 327 306 301 294 297 291 284 282 285 285 286 282 279 278 279 278 275 270 268 268 269 268 265 265 265
94 100 98 112 106 110 110 91 52 44 27 28 28 20 14 0 347 335 325 304 295 296 299 294 294 286 289 289 285 283 283 284 283 281 279 273 270 270 272 267 266 266 265
95 102 106 105 95 84 71 36 22 18 18 18 12 0 347 339 331 323 315 307 300 299 300 298 298 294 289 291 287 284 283 285 287 286 280 275 274 273 273 270 268 265 266
75 76 70 67 51 43 35 26 21 14 4 357 348 337 331 322 319 315 311 307 302 301 305 303 302 301 295 292 293 288 283 286 285 286 283 279 277 277 274 270 268 267 264
57 60 55 47 40 42 34 28 10 4 350 339 333 328 327 322 315 310 307 305 305 302 304 304 303 303 300 299 297 293 290 289 288 286 284 281 278 276 277 275 273 268 265
38 44 48 42 36 33 25 15 4 349 333 326 325 322 319 316 311 308 307 305 301 298 296 299 302 301 299 298 297 294 292 294 293 289 290 289 283 280 278 280 279 274 271
26 30 31 28 25 17 9 357 346 340 332 327 323 318 315 312 309 307 307 305 300 298 296 296 298 298 299 297 296 294 294 295 295 293 292 292 287 284 280 278 276 274 269
22 23 23 21 16 10 359 347 339 335 332 328 322 317 313 310 307 306 305 303 300 300 299 297 297 296 299 297 294 292 291 292 294 293 290 290 289 283 281 280 278 275 270
24 17 18 11 5 360 348 340 337 334 329 325 321 320 315 309 307 305 304 301 299 298 298 298 297 296 295 295 294 292 291 290 292 291 289 289 289 286 281 281 281 280 279
10 6 358 350 350 347 343 340 339 336 331 326 322 317 314 308 306 303 302 300 299 298 297 295 293 294 294 294 293 290 290 289 289 289 288 286 286 286 286 281 279 280 278
359 351 343 341 340 340 338 336 335 333 331 327 323 320 316 310 306 303 302 300 298 296 295 295 295 294 294 293 294 292 291 287 286 288 287 286 285 284 284 284 281 280 278
348 341 332 334 335 333 333 330 327 327 326 325 323 320 317 312 306 304 302 301 298 295 294 294 296 295 294 294 294 293 291 289 290 291 289 287 285 284 283 281 281 281 279
341 337 332 328 327 323 324 324 322 322 322 324 323 319 317 314 308 304 302 300 297 297 297 298 298 297 296 296 296 294 292 290 291 292 290 290 288 285 283 281 280 280 280
333 331 327 323 323 320 319 319 318 315 317 316 316 316 315 313 310 307 303 303 302 301 300 300 300 300 299 298 297 297 296 294 293 293 291 291 290 288 285 283 282 281 281
326 326 324 321 320 319 318 316 315 313 314 314 314 314 313 312 310 308 305 302 303 304 305 305 304 302 300 299 299 298 296 294 292 291 291 291 289 288 287 285 285 284 283
318 319 319 317 317 315 316 317 314 313 312 311 311 312 311 311 310 308 305 302 302 303 305 305 303 303 304 302 300 298 297 295 293 291 290 290 289 288 287 286 285 284 283
315 316 318 316 314 313 312 312 313 313 311 309 309 309 310 310 310 309 307 303 302 302 303 304 304 304 303 303 302 301 298 295 293 292 290 290 290 289 287 285 284 284 283
311 314 315 315 313 311 311 311 311 313 311 308 307 308 308 309 307 306 307 305 303 302 302 303 303 302 301 302 301 299 299 299 296 295 292 290 290 288 286 284 283 283 283
306 307 307 310 311 310 310 310 310 310 310 310 307 306 307 308 308 307 306 305 304 302 301 300 301 300 300 300 300 300 299 300 298 297 295 291 289 288 286 285 286 285 285
304 303 303 305 307 308 308 309 308 307 308 309 308 307 307 307 308 308 306 306 305 304 301 299 299 299 299 298 298 298 298 299 300 298 297 293 291 291 289 289 289 287 286
302 302 302 302 303 305 306 307 306 305 306 307 307 307 308 308 307 307 306 305 305 303 302 300 299 299 299 298 297 297 298 299 300 298 295 294 293 293 291 291 290 289 289
299 299 300 299 301 302 303 304 304 304 305 305 306 306 306 306 306 305 304 304 304 302 302 301 300 299 299 298 298 297 296 297 298 296 294 293 293 294 293 292 291 290 290
296 296 298 298 298 299 301 303 303 304 305 305 305 305 305 305 305 303 303 305 304 303 302 301 300 300 297 297 297 296 297 298 297 295 294 294 294 295 295 293 291 291 291
297 296 297 297 297 299 301 302 303 304 304 304 304 303 303 303 305 304 304 305 306 304 302 300 299 298 296 295 296 296 296 296 295 294 295 295 295 295 294 293 291 292 292
294 296 299 298 298 298 301 301 301 302 303 303 304 304 303 303 304 304 306 306 306 305 302 299 298 298 297 295 296 297 297 298 296 295 295 295 296 296 295 294 293 294 295
292 294 296 295 296 297 299 299 299 300 301 301 301 302 302 302 303 304 305 305 305 304 302 300 299 297 298 297 296 296 297 298 297 297 297 296 297 298 297 296 294 293 293
Height
5890 5890 5890 5889 5889 5888 5888 5888 5888 5888 5888 5887 5887 5887 5887 5886 5886 5885 5885 5884 5884 5883 5883 5882 5882 5881 5881 5880 5879 5879 5878 5878 5878 5877 5876 5876 5876 5875 5876 5876 5876 5876 5876
5891 5891 5890 5890 5890 5889 5889 5889 5888 5888 5888 5888 5887 5887 5887 5886 5886 5885 5884 5883 5883 5882 5882 5881 5880 5880 5879 5878 5878 5877 5876 5876 5875 5874 5874 5873 5873 5873 5873 5873 5873 5873 5873
5892 5892 5891 5891 5890 5890 5889 5889 5889 5888 5888 5888 5887 5887 5886 5886 5885 5884 5883 5883 5882 5881 5880 5879 5879 5878 5877 5877 5876 5875 5874 5874 5873 5872 5872 5871 5870 5870 5870 5870 5870 5870 5870
5893 5892 5892 5891 5891 5890 5890 5889 5889 5889 5888 5888 5887 5887 5886 5885 5884 5884 5883 5882 5881 5880 5879 5878 5878 5877 5876 5875 5874 5873 5872 5871 5871 5870 5869 5868 5868 5867 5866 5866 5866 5866 5867
5894 5893 5893 5892 5891 5891 5890 5889 5889 5889 5888 5888 5887 5886 5885 5884 5883 5882 5882 5881 5880 5879 5878 5877 5876 5875 5874 5873 5872 5871 5870 5869 5868 5867 5866 5865 5864 5864 5863 5862 5862 5863 5863
5894 5893 5893 5892 5891 5891 5890 5890 5889 5889 5888 5887 5886 5885 5884 5883 5882 5881 5880 5879 5878 5877 5876 5875 5874 5873 5872 5871 5870 5869 5867 5866 5865 5864 5863 5861 5860 5860 5860 5859 5859 5859 5859
5895 5894 5893 5892 5892 5891 5890 5889 5889 5888 5887 5886 5885 5884 5883 5882 5881 5880 5879 5877 5876 5875 5874 5873 5872 5871 5870 5868 5867 5866 5865 5864 5863 5862 5860 5859 5858 5857 5856 5856 5855 5855 5855
5895 5894 5894 5893 5892 5891 5890 5889 5888 5887 5886 5885 5884 5883 5882 5881 5879 5878 5877 5875 5874 5873 5872 5871 5869 5868 5867 5865 5864 5863 5862 5860 5859 5858 5857 5856 5854 5853 5852 5852 5851 5851 5851
5896 5895 5894 5893 5892 5891 5890 5889 5887 5886 5885 5883 5882 5881 5880 5879 5878 5876 5875 5873 5872 5871 5870 5868 5867 5865 5864 5862 5861 5859 5858 5857 5855 5854 5853 5851 5850 5849 5848 5848 5847 5847 5847
5895 5895 5894 5893 5891 5890 5889 5888 5886 5885 5883 5882 5880 5879 5878 5876 5875 5874 5873 5871 5869 5868 5866 5865 5864 5862 5860 5859 5857 5856 5854 5853 5851 5850 5849 5847 5846 5845 5844 5843 5843 5843 5842
5895 5894 5893 5892 5891 5889 5888 5887 5885 5884 5882 5880 5879 5877 5875 5874 5873 5871 5870 5868 5867 5865 5863 5861 5860 5858 5857 5855 5853 5852 5850 5849 5847 5845 5844 5843 5841 5840 5840 5839 5838 5838 5837
5894 5893 5892 5891 5890 5889 5887 5886 5884 5882 5880 5878 5876 5875 5873 5871 5870 5868 5867 5865 5863 5862 5859 5857 5856 5854 5852 5851 5849 5847 5846 5844 5842 5840 5839 5837 5836 5835 5834 5834 5833 5833 5832
5894 5892 5891 5890 5889 5887 5886 5884 5882 5880 5878 5876 5874 5872 5870 5868 5867 5865 5863 5861 5859 5857 5855 5853 5851 5850 5848 5846 5844 5843 5841 5839 5837 5835 5834 5832 5831 5829 5828 5828 5827 5827 5826
5893 5891 5890 5889 5887 5885 5884 5882 5880 5878 5876 5874 5872 5869 5867 5865 5863 5861 5859 5858 5856 5854 5851 5849 5847 5845 5843 5841 5840 5838 5836 5834 5832 5830 5828 5827 5825 5824 5822 5822 5821 5820 5819
5891 5890 5888 5887 5885 5883 5881 5879 5877 5875 5873 5871 5868 5866 5864 5861 5859 5857 5855 5853 5852 5850 5848 5845 5843 5841 5838 5836 5834 5833 5831 5829 5827 5825 5823 5821 5820 5818 5817 5816 5815 5814 5813
5890 5888 5886 5884 5882 5880 5878 5876 5874 5871 5869 5867 5865 5862 5860 5857 5855 5853 5851 5849 5847 5845 5843 5840 5838 5835 5833 5831 5829 5827 5825 5823 5821 5819 5817 5815 5814 5813 5811 5810 5809 5807 5806
5887 5886 5883 5881 5879 5877 5875 5872 5870 5868 5865 5863 5861 5858 5856 5853 5851 5849 5847 5844 5842 5840 5838 5835 5833 5830 5828 5826 5823 5821 5819 5817 5815 5813 5811 5809 5807 5806 5804 5803 5802 5800 5799
5885 5883 5881 5878 5876 5874 5871 5869 5866 5864 5861 5859 5856 5854 5852 5849 5847 5844 5842 5839 5837 5834 5832 5830 5828 5825 5822 5820 5818 5816 5813 5811 5809 5806 5804 5803 5801 5799 5798 5796 5795 5793 5792
5882 5880 5878 5875 5873 5870 5867 5865 5862 5859 5857 5855 5852 5850 5847 5845 5842 5839 5837 5834 5832 5829 5827 5824 5822 5820 5817 5815 5812 5810 5808 5805 5803 5800 5798 5796 5794 5793 5791 5790 5788 5786 5785
5878 5876 5873 5871 5869 5866 5863 5861 5858 5855 5853 5850 5847 5845 5842 5840 5837 5834 5832 5829 5826 5823 5821 5818 5816 5814 5811 5809 5806 5804 5802 5799 5797 5795 5792 5790 5788 5786 5785 5783 5781 5779 5778
5873 5871 5869 5866 5864 5861 5859 5856 5853 5851 5848 5845 5843 5840 5837 5834 5832 5829 5826 5823 5820 5818 5815 5812 5810 5807 5805 5803 5800 5798 5796 5793 5791 5789 5786 5785 5782 5780 5778 5776 5774 5772 5770
5868 5866 5863 5861 5859 5856 5854 5851 5848 5846 5843 5840 5837 5835 5832 5829 5826 5823 5820 5818 5815 5812 5809 5806 5804 5801 5799 5797 5794 5792 5790 5787 5785 5783 5780 5778 5776 5773 5771 5769 5766 5764 5762
5862 5860 5858 5855 5853 5851 5848 5845 5843 5840 5837 5835 5832 5829 5826 5823 5820 5817 5815 5812 5809 5805 5803 5800 5797 5795 5793 5791 5788 5786 5783 5781 5778 5775 5773 5771 5769 5767 5764 5762 5759 5757 5755
5856 5854 5852 5849 5847 5845 5842 5840 5837 5834 5831 5829 5826 5823 5820 5817 5814 5811 5808 5805 5802 5799 5796 5793 5791 5788 5786 5784 5781 5779 5776 5774 5771 5769 5766 5764 5762 5759 5757 5755 5752 5750 5748
5849 5847 5845 5843 5840 5838 5836 5833 5830 5828 5825 5823 5820 5817 5814 5811 5808 5805 5802 5799 5796 5793 5789 5787 5784 5782 5779 5777 5774 5772 5769 5767 5764 5762 5759 5757 5755 5752 5750 5747 5745 5743 5740
5842 5840 5838 5836 5834 5832 5829 5826 5824 5821 5819 5816 5813 5810 5807 5805 5802 5799 5796 5792 5789 5786 5783 5780 5777 5775 5772 5770 5767 5764 5762 5759 5757 5755 5752 5750 5747 5745 5742 5740 5738 5735 5733